Location: Unspecified
(0.0000°N, 0.0000°E)
Time: 14:37:40
(UTC+00:00)

Vanguard 2 Rocket - Pass Details

Date: 13 October 2022
Orbit: 553 x 3313 km, 32.9° (Epoch: 26 September)

Event Time Altitude Azimuth Distance (km) Brightness Sun altitude
Rises 12:03:11 0° 198° (SSW) 4,228 10.4 81.1°
Reaches altitude 10° 12:08:09 10° 171° (S) 3,829 10.3 80.4°
Maximum altitude 12:12:34 13° 145° (SE) 4,051 10.4 79.8°
Drops below altitude 10° 12:17:56 10° 121° (ESE) 4,847 10.7 78.8°
Sets 12:26:18 0° 98° (E) 6,548 11.2 77.3°
